{"data":{"norad_id":65191,"epoch":"2026-05-25T02:58:04.039968Z","epoch_age_seconds":78036,"freshness":"FRESH","line1":"1 65191U 25175T   26145.12365787  .00004483  00000+0  31451-3 0  9994","line2":"2 65191  97.4535  17.6490 0002015  82.2633 277.8822 15.05657445 44147","mean_motion":15.05657445,"eccentricity":0.0002015,"inclination_deg":97.4535,"raan_deg":17.649,"arg_perigee_deg":82.2633,"mean_anomaly_deg":277.8822,"bstar":0.00031451,"rev_number":4414,"period_min":95.63928400726,"perigee_km":548.09240083238,"apogee_km":550.88423383526,"semimajor_km":6927.6253173338,"source":"CELESTRAK","updated_at":"2026-05-25T13:38:20.715868Z"}}